• In Belarus
  • List of Countries
  • For 7 days
  • Water Temperature
  • Satellite Maps
  • Weather Map
  • Weather Widgets
  • user-avatar
    Login

    Hourly Weather Salta

    Today, 17 December, Sunday

    Time Temperature Precipitation Wind Pressure Humidity
    00:00 +26°C° 0 mm 1 mps 647 mmHg 61%
    01:00 +25°C° 0 mm 1 mps 647 mmHg 60%
    02:00 +25°C° 0 mm 1 mps 646 mmHg 60%
    03:00 +25°C° 0 mm 1 mps 647 mmHg 60%
    04:00 +24°C° 0 mm 1 mps 647 mmHg 59%
    05:00 +24°C° 0 mm 1 mps 647 mmHg 59%
    06:00 +26°C° 0 mm 1 mps 648 mmHg 52%
    07:00 +28°C° 0 mm 1 mps 649 mmHg 45%
    08:00 +30°C° 0 mm 2 mps 650 mmHg 38%
    09:00 +33°C° 0 mm 3 mps 651 mmHg 35%
    10:00 +34°C° 0 mm 5 mps 652 mmHg 31%
    11:00 +36°C° 0 mm 7 mps 653 mmHg 27%
    12:00 +34°C° 1 mm 6 mps 653 mmHg 36%
    13:00 +32°C° 1 mm 6 mps 653 mmHg 45%
    14:00 +30°C° 1 mm 5 mps 653 mmHg 54%
    15:00 +29°C° 0.7 mm 5 mps 653 mmHg 55%
    16:00 +28°C° 0.7 mm 5 mps 653 mmHg 57%
    17:00 +27°C° 0.7 mm 4 mps 652 mmHg 59%
    18:00 +25°C° 0.1 mm 4 mps 653 mmHg 64%
    19:00 +24°C° 0.1 mm 3 mps 653 mmHg 69%
    20:00 +21°C° 0.1 mm 2 mps 653 mmHg 73%
    21:00 +21°C° 0.3 mm 2 mps 654 mmHg 75%
    22:00 +21°C° 0.3 mm 1 mps 654 mmHg 76%
    23:00 +21°C° 0.3 mm 1 mps 655 mmHg 77%

    Tomorrow, 18 December, Monday

    Time Temperature Precipitation Wind Pressure Humidity
    00:00 +21°C° 0.1 mm 1 mps 655 mmHg 77%
    01:00 +21°C° 0.1 mm 1 mps 654 mmHg 77%
    02:00 +20°C° 0.1 mm 2 mps 654 mmHg 77%
    03:00 +20°C° 0.2 mm 1 mps 654 mmHg 77%
    04:00 +20°C° 0.2 mm 1 mps 654 mmHg 77%
    05:00 +20°C° 0.2 mm 1 mps 654 mmHg 77%
    06:00 +20°C° 0.1 mm 1 mps 654 mmHg 72%
    07:00 +21°C° 0.1 mm 1 mps 654 mmHg 68%
    08:00 +21°C° 0.1 mm 1 mps 655 mmHg 63%
    09:00 +21°C° 0.5 mm 2 mps 655 mmHg 60%
    10:00 +23°C° 0.5 mm 2 mps 655 mmHg 57%
    11:00 +24°C° 0.5 mm 2 mps 656 mmHg 54%
    12:00 +25°C° 0.7 mm 2 mps 655 mmHg 54%
    13:00 +25°C° 0.7 mm 1 mps 654 mmHg 55%
    14:00 +25°C° 0.7 mm 1 mps 653 mmHg 55%
    15:00 +25°C° 0.3 mm 1 mps 653 mmHg 54%
    16:00 +26°C° 0.3 mm 1 mps 652 mmHg 53%
    17:00 +26°C° 0.3 mm 1 mps 652 mmHg 52%
    18:00 +25°C° 0.1 mm 1 mps 652 mmHg 56%
    19:00 +24°C° 0.1 mm 1 mps 652 mmHg 61%
    20:00 +22°C° 0.1 mm 1 mps 652 mmHg 65%
    21:00 +22°C° 0 mm 1 mps 652 mmHg 67%
    22:00 +22°C° 0 mm 1 mps 652 mmHg 69%
    23:00 +21°C° 0 mm 1 mps 652 mmHg 71%

    Day after tomorrow, 19 December, Tuesday

    Time Temperature Precipitation Wind Pressure Humidity
    00:00 +21°C° 0 mm 1 mps 652 mmHg 74%
    01:00 +20°C° 0 mm 1 mps 651 mmHg 76%
    02:00 +20°C° 0 mm 1 mps 651 mmHg 78%
    03:00 +20°C° 0 mm 1 mps 651 mmHg 80%
    04:00 +19°C° 0 mm 1 mps 650 mmHg 82%
    05:00 +19°C° 0 mm 1 mps 650 mmHg 83%
    06:00 +21°C° 0 mm 1 mps 651 mmHg 77%
    07:00 +22°C° 0 mm 1 mps 652 mmHg 70%
    08:00 +24°C° 0 mm 1 mps 653 mmHg 63%
    09:00 +26°C° 0 mm 2 mps 653 mmHg 59%
    10:00 +27°C° 0 mm 2 mps 653 mmHg 54%
    11:00 +29°C° 0 mm 3 mps 653 mmHg 49%
    12:00 +29°C° 0.1 mm 3 mps 652 mmHg 48%
    13:00 +30°C° 0.1 mm 3 mps 652 mmHg 46%
    14:00 +31°C° 0.1 mm 3 mps 651 mmHg 44%
    15:00 +30°C° 0.4 mm 3 mps 651 mmHg 47%
    16:00 +30°C° 0.4 mm 3 mps 650 mmHg 50%
    17:00 +29°C° 0.4 mm 3 mps 650 mmHg 53%
    18:00 +27°C° 0.9 mm 2 mps 650 mmHg 59%
    19:00 +26°C° 0.9 mm 2 mps 650 mmHg 65%
    20:00 +24°C° 0.9 mm 1 mps 650 mmHg 72%
    21:00 +24°C° 0.4 mm 1 mps 651 mmHg 74%
    22:00 +23°C° 0.4 mm 1 mps 651 mmHg 76%
    23:00 +23°C° 0.4 mm 1 mps 651 mmHg 77%

    20 December, Wednesday

    Time Temperature Precipitation Wind Pressure Humidity
    00:00 +23°C° 0.1 mm 1 mps 651 mmHg 78%
    01:00 +22°C° 0.1 mm 1 mps 651 mmHg 79%
    02:00 +22°C° 0.1 mm 1 mps 650 mmHg 80%
    03:00 +22°C° 0.2 mm 1 mps 650 mmHg 81%
    04:00 +22°C° 0.2 mm 1 mps 650 mmHg 81%
    05:00 +21°C° 0.2 mm 1 mps 650 mmHg 82%
    06:00 +22°C° 0.2 mm 1 mps 650 mmHg 77%
    07:00 +24°C° 0.2 mm 1 mps 651 mmHg 73%
    08:00 +25°C° 0.2 mm 2 mps 652 mmHg 69%
    09:00 +26°C° 0.1 mm 2 mps 652 mmHg 64%
    10:00 +27°C° 0.1 mm 2 mps 652 mmHg 60%
    11:00 +28°C° 0.1 mm 2 mps 652 mmHg 55%
    12:00 +29°C° 0.3 mm 2 mps 651 mmHg 54%
    13:00 +29°C° 0.3 mm 2 mps 650 mmHg 53%
    14:00 +29°C° 0.3 mm 2 mps 650 mmHg 52%
    15:00 +29°C° 0.2 mm 2 mps 649 mmHg 54%
    16:00 +29°C° 0.2 mm 3 mps 649 mmHg 56%
    17:00 +29°C° 0.2 mm 3 mps 648 mmHg 57%
    18:00 +27°C° 0.5 mm 2 mps 648 mmHg 64%
    19:00 +25°C° 0.5 mm 1 mps 648 mmHg 72%
    20:00 +24°C° 0.5 mm 1 mps 648 mmHg 79%
    21:00 +24°C° 0.4 mm 1 mps 648 mmHg 80%
    22:00 +23°C° 0.4 mm 1 mps 649 mmHg 81%
    23:00 +21°C° 0.4 mm 0 mps 649 mmHg 81%

    21 December, Thursday

    Time Temperature Precipitation Wind Pressure Humidity
    00:00 +21°C° 0.2 mm 0 mps 649 mmHg 81%
    01:00 +21°C° 0.2 mm 0 mps 648 mmHg 80%
    02:00 +21°C° 0.2 mm 0 mps 648 mmHg 79%
    03:00 +20°C° 0.1 mm 0 mps 648 mmHg 81%
    04:00 +22°C° 0.1 mm 1 mps 648 mmHg 82%
    05:00 +22°C° 0.1 mm 1 mps 648 mmHg 83%
    06:00 +23°C° 0 mm 1 mps 648 mmHg 77%
    07:00 +24°C° 0 mm 1 mps 649 mmHg 71%
    08:00 +26°C° 0 mm 1 mps 650 mmHg 66%
    09:00 +27°C° 0.2 mm 2 mps 650 mmHg 60%
    10:00 +29°C° 0.2 mm 2 mps 650 mmHg 54%
    11:00 +30°C° 0.2 mm 3 mps 650 mmHg 48%
    12:00 +31°C° 0.1 mm 3 mps 650 mmHg 47%
    13:00 +31°C° 0.1 mm 3 mps 649 mmHg 46%
    14:00 +33°C° 0.1 mm 3 mps 649 mmHg 45%
    15:00 +31°C° 0.2 mm 3 mps 648 mmHg 47%
    16:00 +31°C° 0.2 mm 3 mps 648 mmHg 49%
    17:00 +31°C° 0.2 mm 3 mps 647 mmHg 50%
    18:00 +28°C° 0.8 mm 3 mps 648 mmHg 60%
    19:00 +26°C° 0.8 mm 2 mps 648 mmHg 69%
    20:00 +24°C° 0.8 mm 1 mps 648 mmHg 78%
    21:00 +24°C° 0.6 mm 1 mps 648 mmHg 80%
    22:00 +23°C° 0.6 mm 1 mps 648 mmHg 82%
    23:00 +21°C° 0.6 mm 0 mps 648 mmHg 84%

    22 December, Friday

    Time Temperature Precipitation Wind Pressure Humidity
    00:00 +21°C° 0.1 mm 0 mps 648 mmHg 83%
    01:00 +21°C° 0.1 mm 0 mps 647 mmHg 82%
    02:00 +21°C° 0.1 mm 0 mps 647 mmHg 82%
    03:00 +21°C° 0 mm 0 mps 647 mmHg 81%
    04:00 +21°C° 0 mm 0 mps 646 mmHg 80%
    05:00 +21°C° 0 mm 0 mps 646 mmHg 79%
    06:00 +24°C° 0 mm 1 mps 647 mmHg 73%
    07:00 +25°C° 0 mm 1 mps 648 mmHg 67%
    08:00 +27°C° 0 mm 1 mps 648 mmHg 61%
    09:00 +28°C° 0.1 mm 2 mps 648 mmHg 56%
    10:00 +30°C° 0.1 mm 2 mps 648 mmHg 50%
    11:00 +32°C° 0.1 mm 2 mps 648 mmHg 45%
    12:00 +33°C° 0.2 mm 3 mps 648 mmHg 44%
    13:00 +34°C° 0.2 mm 3 mps 647 mmHg 43%
    14:00 +34°C° 0.2 mm 3 mps 647 mmHg 42%
    15:00 +33°C° 0.3 mm 3 mps 646 mmHg 45%
    16:00 +33°C° 0.3 mm 3 mps 646 mmHg 48%
    17:00 +31°C° 0.3 mm 3 mps 645 mmHg 51%
    18:00 +29°C° 0.3 mm 3 mps 646 mmHg 60%
    19:00 +27°C° 0.3 mm 2 mps 646 mmHg 68%
    20:00 +26°C° 0.3 mm 1 mps 646 mmHg 76%
    21:00 +25°C° 0.5 mm 1 mps 646 mmHg 78%
    22:00 +25°C° 0.5 mm 1 mps 647 mmHg 79%
    23:00 +24°C° 0.5 mm 1 mps 647 mmHg 81%
    Show more